Date String (YYYY-MM-DD hh:mm:ss) UTC,Instrument flags,Ambient pressure (hPa),Sample flow (lpm),Bypass flow (lpm),Sample temperature (°C),Ambient temperature (°C),ASC tube jacket temperature (°C),LED temperature (°C),Box temperature (°C),Sample RH (%),Span deviation,Mass concentration (μg/m³),Mass concentration (μg/m³),Mass concentration (μg/m³)
DateTimeUTC,F1_M11,P_M11,Q1_M11,Q2_M11,T1_M11,T2_M11,T3_M11,T4_M11,T5_M11,U1_M11,ZSPAN_M11,X0_M11,X2_M11,X1_M11
2022-12-25 01:00:00,,0830.4,5.02,0.00,22.4,21.1,00.0,31.2,24.2,13.8,0000.0,0009.73,0006.30,0006.00
2022-12-25 01:01:00,,0830.4,5.03,0.00,22.4,21.1,00.0,31.2,24.2,13.9,0000.0,0010.20,0006.73,0006.40
2022-12-25 01:02:00,,0830.4,5.00,0.00,22.4,21.1,00.0,31.2,24.2,13.8,0000.0,0010.91,0007.35,0006.99
2022-12-25 01:03:00,,0830.3,4.97,0.00,22.4,21.1,00.0,31.2,24.2,13.9,0000.0,0011.47,0007.91,0007.53
2022-12-25 01:04:00,,0830.3,4.97,0.00,22.4,21.1,00.0,31.2,24.1,14.0,0000.0,0011.92,0008.37,0008.01
2022-12-25 01:05:00,,0830.2,5.03,0.00,22.4,21.1,00.0,31.2,24.2,14.1,0000.0,0012.51,0008.90,0008.53
2022-12-25 01:06:00,,0830.3,5.01,0.00,22.4,21.1,00.0,31.2,24.2,14.1,0000.0,0012.65,0009.02,0008.69
2022-12-25 01:07:00,,0830.2,5.01,0.00,22.4,21.1,00.0,31.2,24.2,14.0,0000.0,0012.74,0009.01,0008.69
2022-12-25 01:08:00,,0830.1,4.98,0.00,22.4,21.1,00.0,31.2,24.1,13.9,0000.0,0012.76,0009.18,0008.82
2022-12-25 01:09:00,,0830.1,4.97,0.00,22.4,21.1,00.0,31.2,24.1,13.9,0000.0,0012.44,0009.38,0008.99
2022-12-25 01:10:00,,0830.1,5.02,0.00,22.3,21.1,00.0,31.2,24.1,13.9,0000.0,0012.65,0009.59,0009.19
2022-12-25 01:11:00,,0830.1,5.02,0.00,22.3,21.1,00.0,31.2,24.2,13.9,0000.0,0012.84,0009.80,0009.38
2022-12-25 01:12:00,,0830.2,5.02,0.00,22.3,21.0,00.0,31.2,24.2,13.9,0000.0,0012.96,0009.95,0009.56
2022-12-25 01:13:00,,0830.2,4.98,0.00,22.3,21.0,00.0,31.2,24.1,14.0,0000.0,0012.94,0010.03,0009.66
2022-12-25 01:14:00,,0830.2,4.98,0.00,22.3,21.0,00.0,31.2,24.1,14.1,0000.0,0013.12,0010.20,0009.82
2022-12-25 01:15:00,,0830.1,5.01,0.00,22.3,21.0,00.0,31.2,24.1,14.0,0000.0,0013.13,0010.19,0009.81
2022-12-25 01:16:00,,0830.1,5.02,0.00,22.3,21.0,00.0,31.2,24.1,13.9,0000.0,0012.76,0009.92,0009.57
2022-12-25 01:17:00,,0830.1,5.00,0.00,22.3,21.0,00.0,31.2,24.0,13.8,0000.0,0012.66,0009.83,0009.45
2022-12-25 01:18:00,,0830.1,5.01,0.00,22.3,20.9,00.0,31.2,24.0,13.8,0000.0,0012.71,0009.95,0009.57
2022-12-25 01:19:00,,0830.1,4.98,0.00,22.2,20.9,00.0,31.2,24.0,14.0,0000.0,0012.49,0009.88,0009.52
2022-12-25 01:20:00,,0830.1,4.99,0.00,22.2,20.8,00.0,31.2,23.9,14.0,0000.0,0012.34,0009.77,0009.43
2022-12-25 01:21:00,,0830.1,5.02,0.00,22.2,20.8,00.0,31.2,23.9,14.1,0000.0,0012.14,0009.59,0009.27
2022-12-25 01:22:00,,0830.1,5.02,0.00,22.2,20.8,00.0,31.1,23.9,14.2,0000.0,0012.43,0009.29,0008.99
2022-12-25 01:23:00,,0830.1,5.00,0.00,22.2,20.8,00.0,31.1,23.8,14.1,0000.0,0012.37,0009.16,0008.84
2022-12-25 01:24:00,,0830.1,4.98,0.00,22.1,20.8,00.0,31.1,23.8,14.0,0000.0,0012.41,0009.10,0008.77
2022-12-25 01:25:00,,0830.0,5.00,0.00,22.1,20.8,00.0,31.1,23.8,14.1,0000.0,0012.18,0008.80,0008.47
2022-12-25 01:26:00,,0830.1,5.03,0.00,22.1,20.8,00.0,31.1,23.8,14.2,0000.0,0012.19,0008.37,0008.03
2022-12-25 01:27:00,,0830.1,5.01,0.00,22.1,20.8,00.0,31.1,23.9,14.2,0000.0,0011.82,0007.86,0007.51
2022-12-25 01:28:00,,0830.1,4.98,0.00,22.1,20.8,00.0,31.1,23.9,14.2,0000.0,0011.38,0007.47,0007.16
2022-12-25 01:29:00,,0830.1,4.97,0.00,22.1,20.8,00.0,31.1,23.9,14.1,0000.0,0011.05,0007.21,0006.91
2022-12-25 01:30:00,,0830.1,5.00,0.00,22.1,20.8,00.0,31.1,23.9,14.0,0000.0,0010.77,0006.95,0006.67
2022-12-25 01:31:00,,0830.1,5.03,0.00,22.1,20.8,00.0,31.1,23.9,14.1,0000.0,0010.52,0006.73,0006.46
2022-12-25 01:32:00,,0830.1,5.01,0.00,22.1,20.8,00.0,31.0,23.9,14.0,0000.0,0010.40,0006.66,0006.40
2022-12-25 01:33:00,,0830.1,4.98,0.00,22.1,20.8,00.0,31.0,23.9,14.1,0000.0,0010.02,0006.68,0006.44
2022-12-25 01:34:00,,0830.1,4.97,0.00,22.1,20.8,00.0,31.0,23.9,14.1,0000.0,0009.76,0006.68,0006.45
2022-12-25 01:35:00,,0830.1,5.01,0.00,22.1,20.8,00.0,31.0,23.9,14.0,0000.0,0009.52,0006.49,0006.27
2022-12-25 01:36:00,,0830.1,5.01,0.00,22.1,20.8,00.0,31.0,23.9,13.9,0000.0,0009.43,0006.48,0006.24
2022-12-25 01:37:00,,0830.1,5.02,0.00,22.1,20.8,00.0,31.0,23.9,13.9,0000.0,0009.16,0006.61,0006.36
2022-12-25 01:38:00,,0830.1,5.00,0.00,22.1,20.8,00.0,31.0,23.9,13.9,0000.0,0009.29,0006.95,0006.68
2022-12-25 01:39:00,,0830.1,4.97,0.00,22.1,20.8,00.0,31.0,23.9,13.9,0000.0,0009.65,0007.29,0006.97
2022-12-25 01:40:00,,0830.1,5.00,0.00,22.1,20.8,00.0,31.0,23.9,13.9,0000.0,0009.86,0007.51,0007.16
2022-12-25 01:41:00,,0830.1,5.01,0.00,22.1,20.8,00.0,31.0,23.9,13.9,0000.0,0010.03,0007.68,0007.31
2022-12-25 01:42:00,,0830.1,5.03,0.00,22.1,20.8,00.0,31.0,23.9,13.9,0000.0,0010.40,0007.81,0007.44
2022-12-25 01:43:00,,0830.1,5.00,0.00,22.1,20.8,00.0,31.0,23.9,13.9,0000.0,0011.00,0007.83,0007.45
2022-12-25 01:44:00,,0830.1,4.97,0.00,22.1,20.9,00.0,31.0,23.9,13.9,0000.0,0011.20,0007.85,0007.45
2022-12-25 01:45:00,,0830.2,4.98,0.00,22.1,20.9,00.0,31.0,23.9,13.9,0000.0,0011.29,0007.89,0007.49
2022-12-25 01:46:00,,0830.1,5.01,0.00,22.1,20.9,00.0,31.0,23.9,13.9,0000.0,0011.22,0007.86,0007.48
2022-12-25 01:47:00,,0830.2,5.03,0.00,22.1,20.9,00.0,31.0,23.9,13.9,0000.0,0011.47,0007.80,0007.44
2022-12-25 01:48:00,,0830.2,5.01,0.00,22.1,20.9,00.0,31.0,23.9,13.9,0000.0,0011.94,0007.76,0007.42
2022-12-25 01:49:00,,0830.2,4.97,0.00,22.1,20.8,00.0,31.0,23.9,13.9,0000.0,0011.86,0007.72,0007.41
2022-12-25 01:50:00,,0830.2,4.98,0.00,22.1,20.8,00.0,31.0,23.9,13.9,0000.0,0011.73,0007.66,0007.40
2022-12-25 01:51:00,,0830.2,5.03,0.00,22.1,20.8,00.0,31.0,23.8,13.9,0000.0,0011.65,0007.60,0007.36
2022-12-25 01:52:00,,0830.2,5.02,0.00,22.1,20.8,00.0,31.0,23.9,13.9,0000.0,0011.67,0007.51,0007.30
2022-12-25 01:53:00,,0830.2,5.00,0.00,22.1,20.8,00.0,31.0,23.9,13.9,0000.0,0011.51,0007.40,0007.18
2022-12-25 01:54:00,,0830.2,4.97,0.00,22.1,20.8,00.0,31.0,23.8,13.8,0000.0,0010.95,0007.33,0007.09
2022-12-25 01:55:00,,0830.2,4.99,0.00,22.1,20.8,00.0,31.0,23.8,13.8,0000.0,0010.61,0007.22,0006.98
2022-12-25 01:56:00,,0830.1,5.02,0.00,22.0,20.8,00.0,31.0,23.8,13.8,0000.0,0010.39,0007.07,0006.85
2022-12-25 01:57:00,,0830.1,5.02,0.00,22.0,20.7,00.0,31.0,23.8,13.8,0000.0,0011.07,0007.03,0006.80
2022-12-25 01:58:00,,0830.2,5.00,0.00,22.0,20.7,00.0,30.9,23.8,13.8,0000.0,0011.38,0006.97,0006.74
2022-12-25 01:59:00,,0830.1,4.96,0.00,22.0,20.7,00.0,30.9,23.7,13.8,0000.0,0010.62,0006.88,0006.68
